Showing default

GLOBALSTAR M036, 25623

Orbit data source: Space-Track

GLOBALSTAR M036, 25623 is a payload satellite owned by Globalstar (US) in LEO that was launched on Tue, 09 Feb 1999 UTC via a SOYUZ-U-PVB launch vehicle from the Tyuratam Missile And Space Complex (TTMTR). Payload-class satellites include a variety of spacecraft equipped with specific instruments for various scientific and technological missions. These include communications satellites like Starlink; space stations such as the ISS; scientific satellites like the Hubble; Earth observation satellites from companies like Planet Labs, Umbra, and HawkEye 360; GPS; miniature CubeSats for education and research; and military/defense satellites.

Loading next visibility...
Identifier
25623, 1999-004C
Orbit
LEO
Country
Flag of UnknownUnknown / GLOB
Related business
Manufacturer
SS/Loral
Mission
Non-operational Commercial Communications
Bus & Motor
LS-400, LS-400 AOCS
Mass
450 kg wet, 380 kg dry
Launch date (UTC)
1999-02-09 (27 years ago)
Launch vehicle
SOYUZ-U-PVB
Launch site
Tyuratam Missile And Space Complex (TTMTR)
Object type
Payload
Rocket body
Debris
Shape & HBR
Box + 2 Pan, 6.0 m
Radar Cross Section
5.587 m², Large (>1 m²)

Expand to show TLE details & history
Last TLE update: 2 days ago

TLE from 2 days ago
0 GLOBALSTAR M036
1 25623U 99004C   25301.12376343 -.00000006  00000-0  11133-2 0  9998
2 25623  51.9963 249.9247 0010626 307.4054  66.1021 11.86613108194766
Epoch: 2025-10-28T02:58Z
TLE epoch observation values (Epoch: 2025-10-28T02:58:13.160Z)
Latitude
10.68338°
Longitude
177.09032°
Altitude
1,737.784 km
Speed
7.012 km/s
True Right ascension
17h 13m 26s
True Declination
10° 37' 42"
Sunlit
Object was in daylight at epoch
Visualization orbit readout
Latitude
Unknown
Longitude
Unknown
Altitude
Unknown
Speed
Unknown
Apparent Right ascension
Unknown
Apparent Declination
Unknown
Sunlit
N/A
Visualization observer readout
Local Sidereal Time
13:10:30
Azimuth
Unknown
Elevation
Unknown
Doppler factor
Unknown
Orbital elements
Apogee altitude
1,750.365 km
Perigee altitude
1,733.108 km
Semi-major axis
8,119.874 km
Eccentricity
0.00106
Inclination
51.9963°
RAAN
249.9247°
Arg. of periapsis
307.4054°
True anomaly
66.21349°
Mean anomaly
66.1021°
Eccentric anomaly
66.15779°
Mean motion
2.96633 °/min
Orbital period
121.36 mins
BSTAR
0.0011133
Loading maneuver chart data...
Computing Atmospheric mass density...
Loading historical data...
Loading historical data...
Loading historical data...
Loading historical data...
Loading historical data...
Loading historical data...
Loading historical data...
Other satellites on launch #4 in the year 1999 (1999-02-09 UTC)

Documentation

Showing up to 5 results
|